This is the latest recevied weather packets stored in our database for station/object N4ASP-13. If no packets are shown the sender has not sent any weather packets the latest 10 day(s).
| Time | Temp. | Humidity | Pressure | Rain* | Wind** | Luminosity | Snow |
|---|---|---|---|---|---|---|---|
| 1778328294 | 12.78° C | 88% | 1013 hPa | 0 mm | - | 308 W/m² | - |
| 1778328234 | 12.78° C | 88% | 1012.8 hPa | 0 mm | - | 278 W/m² | - |
| 1778328174 | 12.78° C | 88% | 1012.9 hPa | 0 mm | - | 211 W/m² | - |
| 1778328108 | 12.78° C | 88% | 1012.8 hPa | 0 mm | - | 211 W/m² | - |
| 1778328043 | 12.78° C | 87% | 1012.9 hPa | 0 mm | - | 192 W/m² | - |
| 1778327983 | 12.78° C | 88% | 1012.8 hPa | 0 mm | - | 160 W/m² | - |
| 1778327925 | 12.22° C | 88% | 1012.9 hPa | 0 mm | - | 151 W/m² | - |
| 1778327864 | 12.22° C | 88% | 1012.9 hPa | 0 mm | - | 149 W/m² | - |
| 1778327803 | 12.22° C | 88% | 1012.8 hPa | 0 mm | - | 148 W/m² | - |
| 1778327743 | 12.22° C | 88% | 1013 hPa | 0 mm | - | 149 W/m² | - |
| 1778327679 | 12.22° C | 88% | 1013 hPa | 0 mm | - | 137 W/m² | - |
| 1778327619 | 12.22° C | 88% | 1012.9 hPa | 0 mm | - | 130 W/m² | - |
| 1778327558 | 12.22° C | 88% | 1012.9 hPa | 0 mm | - | 123 W/m² | - |
| 1778327496 | 12.22° C | 88% | 1012.8 hPa | 0 mm | - | 116 W/m² | - |
| 1778327437 | 12.22° C | 88% | 1012.9 hPa | 0 mm | - | 116 W/m² | - |
| 1778327375 | 12.22° C | 88% | 1012.9 hPa | 0 mm | - | 120 W/m² | - |
| 1778327315 | 12.22° C | 89% | 1012.9 hPa | 0 mm | - | 139 W/m² | - |
| 1778327252 | 12.22° C | 88% | 1012.9 hPa | 0 mm | - | 163 W/m² | - |
| 1778327184 | 12.22° C | 88% | 1012.8 hPa | 0 mm | - | 243 W/m² | - |
| 1778327125 | 11.67° C | 88% | 1012.8 hPa | 0 mm | - | 236 W/m² | - |
| 1778327063 | 11.67° C | 88% | 1012.8 hPa | 0 mm | - | 255 W/m² | - |
| 1778327003 | 11.67° C | 88% | 1012.7 hPa | 0 mm | - | 213 W/m² | - |
| 1778326942 | 11.67° C | 88% | 1012.7 hPa | 0 mm | - | 134 W/m² | - |
| 1778326876 | 11.67° C | 88% | 1012.5 hPa | 0 mm | - | 118 W/m² | - |
| 1778326817 | 11.67° C | 88% | 1012.5 hPa | 0 mm | - | 114 W/m² | - |
* Rain latest hour (hover to see other rain measurements)
** Current wind speed in m/s (hover to see current wind gust speed)